Location: Battery Park City
(40.7115°N, 74.0163°W)
Time: 04:34:04
(UTC+00:00)

SL-4 R/B - Pass Details

Date: 08 December 2019
Orbit: 428 x 667 km, 51.6° (Epoch: 23 January)

Event Time Altitude Azimuth Distance (km) Brightness Sun altitude
Rises 23:43:18 0° 293° (WNW) 2,567 6.3 -24.8°
Reaches altitude 10° 23:46:00 10° 314° (NW) 1,734 5.0 -25.3°
Enters shadow 23:47:37 16° 337° (NNW) 1,426 4.2 -25.6°
